Fergus Falls, MN

9:07 PM CST on December 13, 2019 (GMT -0600)
Fergus Falls Municipal-Mickelson

Weather History for KFFM - October, 2019

Change the Weather History Date:

Thursday, October 31, 2019

  Actual Average Record
Temperature  
Mean Temperature 27 °F -  
Max Temperature 39 °F 47 °F 75 °F (1999)
Min Temperature 15 °F 30 °F 6 °F (1951)
Degree Days  
Heating Degree Days 38    
Moisture  
Dew Point 17 °F    
Average Humidity 65    
Maximum Humidity 93    
Minimum Humidity 33    
Precipitation  
Precipitation 0.00 in - - ()
Sea Level Pressure  
Sea Level Pressure 30.04 in    
Wind  
Wind Speed 4 mph ()    
Max Wind Speed 14 mph    
Max Gust Speed 18 mph    
Visibility 10.0 miles    
Events      
Averages and records for this station are not official NWS values.
T = Trace of Precipitation, MM = Missing Value Source: Averaged Metar Reports

Daily Weather History Graph

Daily Weather History Graph

Search for Another Location

Airport or City:

Astronomy

Oct. 31, 2019 Rise Set
Actual Time 8:04 AM CDT 6:11 PM CDT
Civil Twilight 7:32 AM CDT 6:43 PM CDT
Nautical Twilight 6:57 AM CDT 7:18 PM CDT
Astronomical Twilight 6:22 AM CDT 7:53 PM CDT
Moon 12:03 PM CDT (10/31) 8:58 PM CDT (10/31)
Length of Visible Light 11h 10m
Length of Day
10h 07m
Waxing Crescent, 16% of the Moon is Illuminated
Oct 31
Waxing Crescent
Nov 4
First Quarter
Nov 12
Full
Nov 19
Last Quarter
Nov 26
New

Hourly Weather History & Observations

Time (CDT) Temp. Windchill Dew Point Humidity Pressure Visibility Wind Dir Wind Speed Gust Speed Precip Events Conditions
12:19 AM 23.0 °F - 15.8 °F 74% 30.19 in 10.0 mi Calm Calm - N/A   Scattered Clouds
12:36 AM 23.0 °F - 15.8 °F 74% 30.19 in 10.0 mi Calm Calm - N/A   Clear
12:56 AM 21.2 °F - 15.8 °F 80% 30.19 in 10.0 mi Calm Calm - N/A   Clear
1:15 AM 21.2 °F - 15.8 °F 80% 30.19 in 10.0 mi Calm Calm - N/A   Clear
1:16 AM 21.2 °F - 15.8 °F 80% 30.19 in 10.0 mi Calm Calm - N/A   Clear
1:35 AM 21.2 °F - 15.8 °F 80% 30.19 in 10.0 mi Calm Calm - N/A   Clear
1:40 AM 21.2 °F - 15.8 °F 80% 30.19 in 10.0 mi Calm Calm - N/A   Clear
1:57 AM 21.2 °F - 15.8 °F 80% 30.18 in 10.0 mi Calm Calm - N/A   Clear
2:15 AM 21.2 °F - 15.8 °F 80% 30.18 in 10.0 mi Calm Calm - N/A   Clear
2:35 AM 21.2 °F - 15.8 °F 80% 30.18 in 10.0 mi Calm Calm - N/A   Clear
2:55 AM 19.4 °F - 15.8 °F 86% 30.17 in 10.0 mi Calm Calm - N/A   Clear
2:56 AM 19.4 °F - 15.8 °F 86% 30.17 in 10.0 mi Calm Calm - N/A   Clear
3:15 AM 19.4 °F - 15.8 °F 86% 30.17 in 10.0 mi Calm Calm - N/A   Clear
3:16 AM 19.4 °F - 15.8 °F 86% 30.17 in 10.0 mi Calm Calm - N/A   Clear
3:38 AM 19.4 °F - 15.8 °F 86% 30.16 in 10.0 mi Calm Calm - N/A   Mostly Cloudy
3:57 AM 19.4 °F - 15.8 °F 86% 30.16 in 10.0 mi Calm Calm - N/A   Overcast
4:15 AM 19.4 °F - 15.8 °F 86% 30.15 in 10.0 mi Calm Calm - N/A   Mostly Cloudy
4:35 AM 19.4 °F - 15.8 °F 86% 30.15 in 10.0 mi Calm Calm - N/A   Clear
4:36 AM 19.4 °F - 15.8 °F 86% 30.15 in 10.0 mi Calm Calm - N/A   Clear
4:55 AM 19.4 °F - 15.8 °F 86% 30.15 in 10.0 mi Calm Calm - N/A   Clear
4:59 AM 19.4 °F - 15.8 °F 86% 30.15 in 10.0 mi Calm Calm - N/A   Clear
5:17 AM 19.4 °F - 15.8 °F 86% 30.15 in 10.0 mi Calm Calm - N/A   Clear
5:36 AM 19.4 °F - 15.8 °F 86% 30.14 in 10.0 mi Calm Calm - N/A   Clear
5:55 AM 19.4 °F 14.3 °F 15.8 °F 86% 30.14 in 10.0 mi SSE 3.5 mph - N/A   Clear
5:56 AM 17.6 °F 12.3 °F 15.8 °F 93% 30.13 in 10.0 mi SSE 3.5 mph - N/A   Clear
6:15 AM 17.6 °F 12.3 °F 15.8 °F 93% 30.13 in 10.0 mi SSE 3.5 mph - N/A   Clear
6:20 AM 17.6 °F 12.3 °F 15.8 °F 93% 30.13 in 10.0 mi SSE 3.5 mph - N/A   Clear
6:37 AM 17.6 °F 12.3 °F 15.8 °F 93% 30.13 in 10.0 mi SSE 3.5 mph - N/A   Clear
6:55 AM 17.6 °F 10.7 °F 15.8 °F 93% 30.13 in 10.0 mi SSE 4.6 mph - N/A   Clear
7:15 AM 17.6 °F 10.7 °F 14.0 °F 86% 30.12 in 10.0 mi SSE 4.6 mph - N/A   Clear
7:16 AM 17.6 °F 10.7 °F 14.0 °F 86% 30.12 in 10.0 mi SSE 4.6 mph - N/A   Clear
7:35 AM 15.8 °F 8.6 °F 14.0 °F 93% 30.12 in 10.0 mi South 4.6 mph - N/A   Clear
7:58 AM 17.6 °F 12.3 °F 14.0 °F 86% 30.12 in 10.0 mi SSE 3.5 mph - N/A   Clear
8:17 AM 17.6 °F 10.7 °F 14.0 °F 86% 30.12 in 10.0 mi SSE 4.6 mph - N/A   Clear
8:36 AM 17.6 °F 10.7 °F 14.0 °F 86% 30.11 in 10.0 mi SSE 4.6 mph - N/A   Clear
8:55 AM 19.4 °F 14.3 °F 15.8 °F 86% 30.11 in 10.0 mi South 3.5 mph - N/A   Clear
8:56 AM 19.4 °F 14.3 °F 15.8 °F 86% 30.11 in 10.0 mi South 3.5 mph - N/A   Clear
9:15 AM 21.2 °F 13.6 °F 17.6 °F 86% 30.11 in 10.0 mi SSW 5.8 mph - N/A   Clear
9:37 AM 23.0 °F 14.7 °F 17.6 °F 80% 30.11 in 10.0 mi South 6.9 mph - N/A   Clear
9:56 AM 24.8 °F 16.9 °F 19.4 °F 80% 30.10 in 10.0 mi SSW 6.9 mph - N/A   Clear
10:17 AM 24.8 °F 15.3 °F 19.4 °F 80% 30.10 in 10.0 mi SSW 9.2 mph - N/A   Clear
10:35 AM 26.6 °F 16.2 °F 19.4 °F 74% 30.09 in 10.0 mi South 11.5 mph - N/A   Clear
10:55 AM 26.6 °F 16.8 °F 19.4 °F 74% 30.09 in 10.0 mi SSW 10.4 mph - N/A   Clear
10:56 AM 26.6 °F 16.8 °F 19.4 °F 74% 30.09 in 10.0 mi SSW 10.4 mph - N/A   Clear
11:15 AM 28.4 °F 19.1 °F 19.4 °F 69% 30.08 in 10.0 mi SSW 10.4 mph - N/A   Clear
11:16 AM 28.4 °F 19.1 °F 19.4 °F 69% 30.08 in 10.0 mi SSW 10.4 mph - N/A   Clear
11:39 AM 30.2 °F 22.6 °F 19.4 °F 64% 30.07 in 10.0 mi South 8.1 mph - N/A   Clear
11:56 AM 30.2 °F 21.3 °F 19.4 °F 64% 30.07 in 10.0 mi SSW 10.4 mph - N/A   Clear
12:16 PM 33.8 °F 26.4 °F 17.6 °F 52% 30.06 in 10.0 mi SW 9.2 mph - N/A   Clear
12:35 PM 33.8 °F 25.8 °F 15.8 °F 48% 30.04 in 10.0 mi WSW 10.4 mph - N/A   Clear
12:55 PM 35.6 °F 28.0 °F 14.0 °F 41% 30.03 in 10.0 mi SW 10.4 mph - N/A   Clear
12:59 PM 35.6 °F 28.0 °F 14.0 °F 41% 30.03 in 10.0 mi SW 10.4 mph - N/A   Clear
1:16 PM 35.6 °F 28.0 °F 15.8 °F 44% 30.02 in 10.0 mi SW 10.4 mph - N/A   Clear
1:36 PM 35.6 °F 27.5 °F 14.0 °F 41% 30.01 in 10.0 mi SW 11.5 mph - N/A   Clear
1:55 PM 37.4 °F 29.3 °F 12.2 °F 36% 30.00 in 10.0 mi WSW 12.7 mph 18.4 mph N/A   Clear
1:56 PM 37.4 °F 28.9 °F 12.2 °F 36% 30.00 in 10.0 mi SW 13.8 mph 18.4 mph N/A   Clear
2:37 PM 37.4 °F 30.8 °F 14.0 °F 38% 29.97 in 10.0 mi SW 9.2 mph 16.1 mph N/A   Clear
2:55 PM 37.4 °F 29.3 °F 15.8 °F 41% 29.96 in 10.0 mi SSW 12.7 mph 17.3 mph N/A   Clear
3:15 PM 39.2 °F 32.0 °F 14.0 °F 36% 29.96 in 10.0 mi SW 11.5 mph 16.1 mph N/A   Clear
3:16 PM 39.2 °F 32.0 °F 14.0 °F 36% 29.96 in 10.0 mi SW 11.5 mph 16.1 mph N/A   Clear
3:35 PM 39.2 °F 31.6 °F 12.2 °F 33% 29.95 in 10.0 mi SW 12.7 mph - N/A   Clear
3:36 PM 39.2 °F 31.6 °F 12.2 °F 33% 29.95 in 10.0 mi SW 12.7 mph - N/A   Clear
3:58 PM 39.2 °F 33.0 °F 12.2 °F 33% 29.94 in 10.0 mi SW 9.2 mph - N/A   Clear
4:17 PM 39.2 °F 32.0 °F 12.2 °F 33% 29.94 in 10.0 mi SW 11.5 mph - N/A   Clear
4:36 PM 39.2 °F 32.0 °F 12.2 °F 33% 29.93 in 10.0 mi SW 11.5 mph - N/A   Clear
4:55 PM 39.2 °F 31.6 °F 12.2 °F 33% 29.93 in 10.0 mi SW 12.7 mph - N/A   Clear
4:56 PM 39.2 °F 32.5 °F 12.2 °F 33% 29.93 in 10.0 mi SW 10.4 mph - N/A   Clear
5:15 PM 37.4 °F 30.8 °F 14.0 °F 38% 29.93 in 10.0 mi SW 9.2 mph - N/A   Clear
5:19 PM 37.4 °F 31.4 °F 14.0 °F 38% 29.93 in 10.0 mi SW 8.1 mph - N/A   Scattered Clouds
5:37 PM 37.4 °F 32.8 °F 17.6 °F 45% 29.93 in 10.0 mi SSW 5.8 mph - N/A   Mostly Cloudy
5:55 PM 35.6 °F 30.7 °F 17.6 °F 48% 29.93 in 10.0 mi SSW 5.8 mph - N/A   Mostly Cloudy
6:15 PM 35.6 °F 30.7 °F 17.6 °F 48% 29.93 in 10.0 mi SW 5.8 mph - N/A   Mostly Cloudy
6:16 PM 35.6 °F 29.9 °F 17.6 °F 48% 29.93 in 10.0 mi SW 6.9 mph - N/A   Mostly Cloudy
6:35 PM 35.6 °F 29.9 °F 17.6 °F 48% 29.93 in 10.0 mi SW 6.9 mph - N/A   Mostly Cloudy
6:36 PM 35.6 °F 29.9 °F 17.6 °F 48% 29.93 in 10.0 mi SW 6.9 mph - N/A   Mostly Cloudy
6:59 PM 33.8 °F 28.6 °F 17.6 °F 52% 29.93 in 10.0 mi SSW 5.8 mph - N/A   Overcast
7:16 PM 35.6 °F 30.7 °F 17.6 °F 48% 29.92 in 10.0 mi SSW 5.8 mph - N/A   Scattered Clouds
7:36 PM 35.6 °F 30.7 °F 17.6 °F 48% 29.92 in 10.0 mi South 5.8 mph - N/A   Mostly Cloudy
7:55 PM 35.6 °F 29.9 °F 17.6 °F 48% 29.92 in 10.0 mi South 6.9 mph - N/A   Overcast
8:15 PM 35.6 °F 29.2 °F 17.6 °F 48% 29.92 in 10.0 mi South 8.1 mph - N/A   Overcast
8:20 PM 35.6 °F 29.9 °F 17.6 °F 48% 29.92 in 10.0 mi South 6.9 mph - N/A   Overcast
8:37 PM 35.6 °F 29.2 °F 19.4 °F 52% 29.91 in 10.0 mi South 8.1 mph - N/A   Mostly Cloudy
8:55 PM 35.6 °F 28.6 °F 19.4 °F 52% 29.90 in 10.0 mi SSW 9.2 mph - N/A   Mostly Cloudy
9:15 PM 33.8 °F 25.8 °F 19.4 °F 56% 29.90 in 10.0 mi SSW 10.4 mph - N/A   Scattered Clouds
9:16 PM 33.8 °F 25.8 °F 19.4 °F 56% 29.90 in 10.0 mi SSW 10.4 mph - N/A   Scattered Clouds
9:36 PM 32.0 °F 24.2 °F 19.4 °F 60% 29.90 in 10.0 mi SSW 9.2 mph - N/A   Clear
10:16 PM 30.2 °F 23.4 °F 21.2 °F 69% 29.90 in 10.0 mi SSW 6.9 mph - N/A   Clear
10:36 PM 30.2 °F 23.4 °F 21.2 °F 69% 29.89 in 10.0 mi SW 6.9 mph - N/A   Clear
10:55 PM 32.0 °F 25.6 °F 21.2 °F 64% 29.89 in 10.0 mi SSW 6.9 mph - N/A   Mostly Cloudy
10:56 PM 32.0 °F 25.6 °F 21.2 °F 64% 29.89 in 10.0 mi SSW 6.9 mph - N/A   Mostly Cloudy
11:15 PM 33.8 °F 28.6 °F 21.2 °F 60% 29.88 in 10.0 mi SSW 5.8 mph - N/A   Overcast
11:20 PM 33.8 °F 28.6 °F 21.2 °F 60% 29.88 in 10.0 mi SSW 5.8 mph - N/A   Overcast
11:37 PM 33.8 °F 29.6 °F 23.0 °F 65% 29.88 in 10.0 mi SSW 4.6 mph - N/A   Overcast
11:55 PM 33.8 °F 28.6 °F 23.0 °F 65% 29.88 in 10.0 mi SW 5.8 mph - N/A   Overcast